Flag for Germany Weather past 2 weeks in Idar-Oberstein, Rhineland-Palatinate, Germany

Now
41 °F

Passing clouds.


Feels Like: 36 °F
Forecast: 38 / 54 °F
Wind: 7 mph from West

Location: Hahn

Current Time: Oct 23, 2014 at 7:13:56 AM

Latest Report: Oct 23, 2014 at 6:50 AM


Visibility: 4 mi

Pressure: 30.18 "Hg

Humidity: 100%

Dew point: 41 °F

Location of Idar-ObersteinLocation

Historic Weather in Idar-Oberstein — Graph

°F

Idar-Oberstein temperature yesterday

Maximum temperature yesterday: 45 °F (at 2:20 PM)
Minimum temperature yesterday: 39 °F (at 5:20 AM)
Average temperature yesterday: 41 °F

Past Weeks' High & Low Weather Summary

 TemperatureHumidityPressure
High66 °F (Oct 19, 1:20 PM)100% (Oct 8, 5:20 AM)30.18 "Hg (Oct 8, 5:20 AM)
Low39 °F (Oct 21, 8:50 PM)63% (Oct 15, 2:20 PM)29.56 "Hg (Oct 21, 4:56 PM)
Average53 °F92%29.91 "Hg
* Reported Oct 8 5:20 AM — Oct 23 5:50 AM, Idar-Oberstein, Weather by CustomWeather, © 2014

Note: Actual official high and low records may vary slightly from our data, if they occured in-between our weather recording intervals... More about our weather records

Advertising

Idar-Oberstein weather history for previous 24 hours

 ConditionsComfort  
Time TempWeatherWind HumidityBarometerVisibility
5:50 AM
Oct 23
41 °FPassing clouds.8 mph100%30.18 "Hg4 mi
5:20 AM41 °FPassing clouds.10 mph100%30.18 "HgN/A
4:50 AM41 °FPassing clouds.10 mph100%30.18 "Hg4 mi
4:20 AM41 °FPassing clouds.10 mph100%30.18 "Hg5 mi
3:50 AM41 °FPassing clouds.10 mph100%30.18 "Hg4 mi
3:20 AM43 °FPassing clouds.10 mph100%30.18 "Hg4 mi
2:50 AM43 °FPassing clouds.10 mph100%30.18 "Hg4 mi
2:20 AM43 °FPassing clouds.9 mph100%30.18 "Hg5 mi
1:50 AM43 °FPassing clouds.12 mph100%30.18 "Hg5 mi
1:20 AM43 °FPassing clouds.13 mph93%30.18 "Hg5 mi
12:50 AM43 °FPartly cloudy.13 mph93%30.15 "HgN/A
12:20 AM43 °FPartly cloudy.10 mph93%30.15 "HgN/A
11:50 PM
Oct 22
43 °FPassing clouds.13 mph93%30.15 "HgN/A
11:20 PM43 °FPassing clouds.14 mph93%30.15 "HgN/A
10:50 PM43 °FPassing clouds.13 mph93%30.15 "HgN/A
10:20 PM43 °FPassing clouds.13 mph93%30.15 "HgN/A
9:50 PM43 °FPartly cloudy.15 mph93%30.15 "HgN/A
9:20 PM43 °FPartly cloudy.13 mph93%30.15 "HgN/A
8:50 PM43 °FLight rain. Partly cloudy.13 mph100%30.12 "HgN/A
8:20 PM43 °FLight rain. Passing clouds.12 mph100%30.12 "HgN/A
7:56 PM43 °FRain showers. Passing clouds.14 mph93%30.12 "HgN/A
7:20 PM43 °FPartly sunny.14 mph93%30.09 "HgN/A
6:50 PM43 °FBroken clouds.13 mph93%30.09 "HgN/A
6:20 PM43 °FBroken clouds.14 mph93%30.07 "HgN/A
5:50 PM43 °FBroken clouds.15 mph93%30.07 "HgN/A
5:20 PM43 °FBroken clouds.17 mph93%30.07 "HgN/A
4:20 PM43 °FBroken clouds.15 mph93%30.07 "HgN/A
3:50 PM43 °FBroken clouds.17 mph93%30.07 "HgN/A
3:20 PM43 °FSprinkles. Partly sunny.14 mph87%30.07 "HgN/A
2:50 PM43 °FSprinkles. Partly sunny.16 mph87%30.07 "HgN/A
2:20 PM45 °FSprinkles. Partly sunny.17 mph81%30.04 "HgN/A
1:50 PM43 °FPartly sunny.17 mph87%30.07 "HgN/A
1:20 PM43 °FSprinkles. Partly sunny.17 mph87%30.04 "HgN/A
12:50 PM43 °FPartly sunny.17 mph87%30.04 "HgN/A
12:20 PM41 °FPartly sunny.17 mph93%30.04 "HgN/A
11:50 AM41 °FPartly sunny.16 mph87%30.04 "HgN/A
11:20 AM41 °FPartly sunny.16 mph93%30.04 "HgN/A
10:50 AM39 °FLight rain. Partly sunny.15 mph93%30.04 "HgN/A
10:20 AM39 °FLight rain. Partly sunny.15 mph93%30.04 "HgN/A
9:50 AM39 °FLight rain. Partly sunny.16 mph93%30.04 "HgN/A
9:20 AM39 °FLight rain. Partly sunny.17 mph93%30.01 "HgN/A
8:50 AM39 °FLight rain. Passing clouds.13 mph93%30.01 "HgN/A
8:20 AM39 °FLight rain. Passing clouds.17 mph93%29.98 "HgN/A
7:50 AM39 °FLight rain. Passing clouds.17 mph93%29.98 "HgN/A
7:20 AM39 °FPassing clouds.18 mph93%29.95 "HgN/A
Weather by CustomWeather, © 2014

See weather overviewHow to use our weather pages